Location: Brachstadt
(48.6975°N, 10.6755°E)
Time: 13:37:31
(UTC+00:00)

Envisat - Pass Details

Date: 02 December 2022
Orbit: 763 x 765 km, 98.2° (Epoch: 06 February)

Event Time Altitude Azimuth Distance (km) Brightness Sun altitude
Rises 04:55:58 0° 4° (N) 3,246 6.2 -18.0°
Reaches altitude 10° 04:58:39 10° 351° (N) 2,315 5.3 -17.6°
Enters shadow 05:01:19 21° 322° (NW) 1,657 4.3 -17.2°
